Location: Ash Observatory
(39.7321°N, 75.2004°W)
Time: 08:58:14
(UTC-04:00)

ISS - Pass Details

Date: 22 May 2019
Orbit: 407 x 418 km, 51.6° (Epoch: 20 June)

Event Time Altitude Azimuth Distance (km) Brightness Sun altitude
Rises 01:15:36 0° 314° (NW) 2,365 0.6 -29.8°
Reaches altitude 10° 01:18:11 10° 334° (NNW) 1,502 -0.3 -29.7°
Enters shadow 01:19:19 15° 352° (N) 1,232 -0.6 -29.7°
